Time,TemperatureF,DewpointF,PressureIn,WindDirection,WindDirectionDegrees,WindSpeedMPH,WindSpeedGustMPH,Humidity,HourlyPrecipIn,Conditions,Clouds,dailyrainin,SoftwareType,DateUTC
2013-01-17 00:00:00,43.1,42.6,30.05,WNW,298,0.0,2.0,98,0.00,,---,0.21,VWS V14.00,2013-01-17 05:00:00,
2013-01-17 00:01:00,43.1,42.6,30.05,North,5,4.0,5.0,98,0.00,,---,0.00,VWS V14.00,2013-01-17 05:01:00,
2013-01-17 00:03:00,43.1,42.6,30.05,North,355,0.0,5.0,98,0.00,,---,0.00,VWS V14.00,2013-01-17 05:03:00,
2013-01-17 00:08:00,43.1,42.6,30.04,NW,311,0.0,5.0,98,0.00,,---,0.01,VWS V14.00,2013-01-17 05:08:00,
2013-01-17 00:10:00,42.8,42.3,30.02,NE,49,1.0,5.0,98,0.00,,---,0.02,VWS V14.00,2013-01-17 05:10:00,
2013-01-17 00:13:00,43.0,42.5,30.03,NW,311,0.0,2.0,98,0.00,,---,0.01,VWS V14.00,2013-01-17 05:13:00,
2013-01-17 00:18:00,42.9,42.4,30.03,ENE,66,0.0,3.0,98,0.00,,---,0.01,VWS V14.00,2013-01-17 05:18:00,
2013-01-17 00:20:00,42.8,42.3,30.02,NE,34,1.0,5.0,98,0.00,,---,0.02,VWS V14.00,2013-01-17 05:20:00,
2013-01-17 00:23:00,42.9,42.4,30.03,ENE,66,0.0,0.0,98,0.00,,---,0.01,VWS V14.00,2013-01-17 05:23:00,
2013-01-17 00:28:00,42.9,42.4,30.03,ENE,70,0.0,1.0,98,0.00,,---,0.01,VWS V14.00,2013-01-17 05:28:00,
2013-01-17 00:30:00,42.8,42.3,30.03,WNW,293,0.0,4.0,98,0.00,,---,0.02,VWS V14.00,2013-01-17 05:30:00,
2013-01-17 00:33:00,42.9,42.4,30.02,ENE,68,0.0,1.0,98,0.00,,---,0.01,VWS V14.00,2013-01-17 05:33:00,
2013-01-17 00:38:00,42.8,42.3,30.01,NNE,25,0.0,2.0,98,0.00,,---,0.01,VWS V14.00,2013-01-17 05:38:00,
2013-01-17 00:40:00,42.8,42.3,30.03,NNE,30,0.0,5.0,98,0.00,,---,0.02,VWS V14.00,2013-01-17 05:40:00,
2013-01-17 00:43:00,42.8,42.3,30.02,NNE,27,1.0,4.0,98,0.00,,---,0.02,VWS V14.00,2013-01-17 05:43:00,
2013-01-17 00:48:00,42.8,42.3,30.02,NNE,26,0.0,4.0,98,0.00,,---,0.02,VWS V14.00,2013-01-17 05:48:00,
2013-01-17 00:50:00,42.8,42.3,30.02,NE,46,0.0,2.0,98,0.00,,---,0.02,VWS V14.00,2013-01-17 05:50:00,
2013-01-17 00:53:00,42.8,42.3,30.03,NNE,26,0.0,0.0,98,0.00,,---,0.02,VWS V14.00,2013-01-17 05:53:00,
2013-01-17 00:58:00,42.8,42.3,30.02,North,355,0.0,1.0,98,0.00,,---,0.02,VWS V14.00,2013-01-17 05:58:00,
2013-01-17 01:00:00,42.8,42.3,30.01,NNW,336,0.0,4.0,98,0.00,,---,0.03,VWS V14.00,2013-01-17 06:00:00,
2013-01-17 01:03:00,42.9,42.4,30.02,NNE,15,0.0,4.0,98,0.00,,---,0.02,VWS V14.00,2013-01-17 06:03:00,
2013-01-17 01:08:00,42.8,42.3,30.03,NE,46,1.0,5.0,98,0.00,,---,0.02,VWS V14.00,2013-01-17 06:08:00,
2013-01-17 01:10:00,42.7,42.2,30.02,East,92,0.0,4.0,98,0.00,,---,0.03,VWS V14.00,2013-01-17 06:10:00,
2013-01-17 01:13:00,42.8,42.3,30.03,NE,53,0.0,2.0,98,0.00,,---,0.02,VWS V14.00,2013-01-17 06:13:00,
2013-01-17 01:18:00,42.8,42.3,30.02,NE,51,1.0,3.0,98,0.00,,---,0.02,VWS V14.00,2013-01-17 06:18:00,
2013-01-17 01:20:00,42.7,42.2,30.01,North,360,0.0,5.0,98,0.00,,---,0.03,VWS V14.00,2013-01-17 06:20:00,
2013-01-17 01:23:00,42.8,42.3,30.03,NE,42,1.0,4.0,98,0.00,,---,0.02,VWS V14.00,2013-01-17 06:23:00,
2013-01-17 01:28:00,42.8,42.3,30.03,West,273,0.0,4.0,98,0.00,,---,0.02,VWS V14.00,2013-01-17 06:28:00,
2013-01-17 01:30:00,42.8,42.3,30.01,North,355,0.0,4.0,98,0.00,,---,0.03,VWS V14.00,2013-01-17 06:30:00,
2013-01-17 01:33:00,42.8,42.3,30.03,WNW,293,0.0,2.0,98,0.00,,---,0.02,VWS V14.00,2013-01-17 06:33:00,
2013-01-17 01:38:00,42.8,42.3,30.03,NNE,30,1.0,5.0,98,0.00,,---,0.02,VWS V14.00,2013-01-17 06:38:00,
2013-01-17 01:40:00,42.9,42.4,30.01,NE,46,0.0,4.0,98,0.00,,---,0.03,VWS V14.00,2013-01-17 06:40:00,
2013-01-17 01:43:00,42.8,42.3,30.03,NNE,30,0.0,1.0,98,0.00,,---,0.02,VWS V14.00,2013-01-17 06:43:00,
2013-01-17 01:48:00,42.8,42.3,30.03,ENE,78,0.0,2.0,98,0.00,,---,0.02,VWS V14.00,2013-01-17 06:48:00,
2013-01-17 01:50:00,42.9,42.4,30.00,NNE,25,2.0,5.0,98,0.00,,---,0.03,VWS V14.00,2013-01-17 06:50:00,
2013-01-17 01:53:00,42.8,42.3,30.02,NE,46,0.0,1.0,98,0.00,,---,0.02,VWS V14.00,2013-01-17 06:53:00,
2013-01-17 01:58:00,42.8,42.3,30.01,NE,49,0.0,2.0,98,0.00,,---,0.03,VWS V14.00,2013-01-17 06:58:00,
2013-01-17 02:00:00,43.0,42.5,30.00,NNE,26,0.0,3.0,98,0.00,,---,0.03,VWS V14.00,2013-01-17 07:00:00,
2013-01-17 02:03:00,42.7,42.2,30.01,NNW,336,0.0,1.0,98,0.00,,---,0.03,VWS V14.00,2013-01-17 07:03:00,
2013-01-17 02:08:00,42.7,42.2,30.02,South,181,1.0,2.0,98,0.00,,---,0.03,VWS V14.00,2013-01-17 07:08:00,
2013-01-17 02:10:00,43.1,42.6,30.01,NNW,336,2.0,4.0,98,0.00,,---,0.04,VWS V14.00,2013-01-17 07:10:00,
2013-01-17 02:13:00,42.7,42.2,30.02,NW,307,1.0,5.0,98,0.00,,---,0.03,VWS V14.00,2013-01-17 07:13:00,
2013-01-17 02:18:00,42.7,42.2,30.02,North,355,0.0,5.0,98,0.00,,---,0.03,VWS V14.00,2013-01-17 07:18:00,
2013-01-17 02:20:00,43.0,42.5,30.00,ENE,57,0.0,5.0,98,0.00,,---,0.04,VWS V14.00,2013-01-17 07:20:00,
2013-01-17 02:23:00,42.8,42.3,30.01,NE,41,1.0,4.0,98,0.00,,---,0.03,VWS V14.00,2013-01-17 07:23:00,
2013-01-17 02:28:00,42.8,42.3,30.01,NE,38,0.0,4.0,98,0.00,,---,0.03,VWS V14.00,2013-01-17 07:28:00,
2013-01-17 02:30:00,43.0,42.5,29.99,NNE,24,1.0,4.0,98,0.00,,---,0.05,VWS V14.00,2013-01-17 07:30:00,
2013-01-17 02:33:00,42.8,42.3,30.01,North,355,0.0,1.0,98,0.00,,---,0.03,VWS V14.00,2013-01-17 07:33:00,
2013-01-17 02:38:00,42.8,42.3,30.01,NE,36,0.0,4.0,98,0.00,,---,0.03,VWS V14.00,2013-01-17 07:38:00,
2013-01-17 02:40:00,43.0,42.5,29.99,North,360,4.0,6.0,98,0.00,,---,0.05,VWS V14.00,2013-01-17 07:40:00,
2013-01-17 02:43:00,42.9,42.4,30.01,SE,136,1.0,2.0,98,0.00,,---,0.03,VWS V14.00,2013-01-17 07:43:00,
2013-01-17 02:48:00,42.9,42.4,30.00,NE,34,1.0,5.0,98,0.00,,---,0.03,VWS V14.00,2013-01-17 07:48:00,
2013-01-17 02:50:00,43.0,42.5,29.97,NNE,30,0.0,5.0,98,0.00,,---,0.05,VWS V14.00,2013-01-17 07:50:00,
2013-01-17 02:53:00,43.0,42.5,30.00,NNE,25,0.0,1.0,98,0.00,,---,0.03,VWS V14.00,2013-01-17 07:53:00,
2013-01-17 02:58:00,43.0,42.5,30.00,NNE,26,0.0,3.0,98,0.00,,---,0.03,VWS V14.00,2013-01-17 07:58:00,
2013-01-17 03:00:00,43.0,42.5,29.97,North,350,1.0,6.0,98,0.00,,---,0.05,VWS V14.00,2013-01-17 08:00:00,
2013-01-17 03:03:00,43.1,42.6,30.00,NW,321,0.0,3.0,98,0.00,,---,0.04,VWS V14.00,2013-01-17 08:03:00,
2013-01-17 03:08:00,43.1,42.6,30.01,NNW,336,2.0,4.0,98,0.00,,---,0.04,VWS V14.00,2013-01-17 08:08:00,
2013-01-17 03:10:00,43.0,42.5,29.98,West,274,0.0,5.0,98,0.00,,---,0.05,VWS V14.00,2013-01-17 08:10:00,
2013-01-17 03:13:00,43.1,42.6,30.01,NNW,336,0.0,2.0,98,0.00,,---,0.04,VWS V14.00,2013-01-17 08:13:00,
2013-01-17 03:18:00,43.0,42.5,30.00,West,280,0.0,5.0,98,0.00,,---,0.04,VWS V14.00,2013-01-17 08:18:00,
2013-01-17 03:20:00,42.9,42.4,29.97,East,92,1.0,7.0,98,0.00,,---,0.05,VWS V14.00,2013-01-17 08:20:00,
2013-01-17 03:23:00,43.0,42.5,30.00,NE,38,0.0,4.0,98,0.00,,---,0.04,VWS V14.00,2013-01-17 08:23:00,
2013-01-17 03:28:00,43.0,42.5,29.99,North,5,1.0,4.0,98,0.00,,---,0.05,VWS V14.00,2013-01-17 08:28:00,
2013-01-17 03:30:00,43.0,42.5,29.97,NW,314,0.0,12.0,98,0.00,,---,0.05,VWS V14.00,2013-01-17 08:30:00,
2013-01-17 03:33:00,43.0,42.5,29.99,NNE,20,0.0,3.0,98,0.00,,---,0.05,VWS V14.00,2013-01-17 08:33:00,
2013-01-17 03:38:00,43.0,42.5,29.99,NE,37,0.0,5.0,98,0.00,,---,0.05,VWS V14.00,2013-01-17 08:38:00,
2013-01-17 03:40:00,43.0,42.2,29.97,ENE,65,0.0,5.0,97,0.00,,---,0.05,VWS V14.00,2013-01-17 08:40:00,
2013-01-17 03:43:00,43.0,42.5,29.98,NW,315,2.0,4.0,98,0.00,,---,0.05,VWS V14.00,2013-01-17 08:43:00,
2013-01-17 03:48:00,43.0,42.5,29.98,NE,38,1.0,4.0,98,0.00,,---,0.05,VWS V14.00,2013-01-17 08:48:00,
2013-01-17 03:50:00,43.0,42.2,29.96,ENE,66,0.0,7.0,97,0.00,,---,0.06,VWS V14.00,2013-01-17 08:50:00,
2013-01-17 03:53:00,43.0,42.5,29.97,NNE,18,1.0,6.0,98,0.00,,---,0.05,VWS V14.00,2013-01-17 08:53:00,
2013-01-17 03:58:00,43.0,42.5,29.98,North,9,2.0,6.0,98,0.00,,---,0.05,VWS V14.00,2013-01-17 08:58:00,
2013-01-17 04:00:00,42.9,42.1,29.96,North,360,0.0,7.0,97,0.00,,---,0.06,VWS V14.00,2013-01-17 09:00:00,
2013-01-17 04:03:00,43.0,42.5,29.97,NE,55,0.0,4.0,98,0.00,,---,0.05,VWS V14.00,2013-01-17 09:03:00,
2013-01-17 04:08:00,43.0,42.5,29.98,North,11,0.0,5.0,98,0.00,,---,0.05,VWS V14.00,2013-01-17 09:08:00,
2013-01-17 04:10:00,42.9,42.1,29.96,NE,37,4.0,6.0,97,0.00,,---,0.06,VWS V14.00,2013-01-17 09:10:00,
2013-01-17 04:13:00,42.9,42.4,29.97,NE,40,5.0,6.0,98,0.00,,---,0.05,VWS V14.00,2013-01-17 09:13:00,
2013-01-17 04:18:00,43.0,42.5,29.97,NE,51,0.0,7.0,98,0.00,,---,0.05,VWS V14.00,2013-01-17 09:18:00,
2013-01-17 04:20:00,42.8,42.0,29.96,NE,36,0.0,8.0,97,0.00,,---,0.06,VWS V14.00,2013-01-17 09:20:00,
2013-01-17 04:23:00,43.0,42.5,29.97,NE,48,0.0,5.0,98,0.00,,---,0.05,VWS V14.00,2013-01-17 09:23:00,
2013-01-17 04:28:00,43.0,42.5,29.96,NNE,29,2.0,12.0,98,0.00,,---,0.05,VWS V14.00,2013-01-17 09:28:00,
2013-01-17 04:30:00,42.8,42.0,29.96,NE,53,0.0,4.0,97,0.00,,---,0.06,VWS V14.00,2013-01-17 09:30:00,
2013-01-17 04:33:00,43.0,42.5,29.97,NNW,331,0.0,4.0,98,0.00,,---,0.05,VWS V14.00,2013-01-17 09:33:00,
2013-01-17 04:38:00,43.0,42.2,29.97,NE,42,0.0,5.0,97,0.00,,---,0.05,VWS V14.00,2013-01-17 09:38:00,
2013-01-17 04:40:00,42.5,41.7,29.96,NNE,19,1.0,9.0,97,0.00,,---,0.06,VWS V14.00,2013-01-17 09:40:00,
2013-01-17 04:43:00,43.0,42.2,29.97,NNE,20,4.0,5.0,97,0.00,,---,0.05,VWS V14.00,2013-01-17 09:43:00,
2013-01-17 04:48:00,43.0,42.2,29.96,NNE,32,1.0,5.0,97,0.00,,---,0.05,VWS V14.00,2013-01-17 09:48:00,
2013-01-17 04:50:00,42.4,41.6,29.95,NE,49,5.0,9.0,97,0.00,,---,0.06,VWS V14.00,2013-01-17 09:50:00,
2013-01-17 04:53:00,43.0,42.2,29.96,North,360,0.0,2.0,97,0.00,,---,0.06,VWS V14.00,2013-01-17 09:53:00,
2013-01-17 04:58:00,42.9,42.1,29.96,ENE,59,1.0,7.0,97,0.00,,---,0.06,VWS V14.00,2013-01-17 09:58:00,
2013-01-17 05:00:00,42.2,41.1,29.96,NNW,336,1.0,8.0,96,0.00,,---,0.06,VWS V14.00,2013-01-17 10:00:00,
2013-01-17 05:03:00,42.9,42.1,29.96,NNE,17,0.0,6.0,97,0.00,,---,0.06,VWS V14.00,2013-01-17 10:03:00,
2013-01-17 05:08:00,42.9,42.1,29.96,ENE,58,0.0,6.0,97,0.00,,---,0.06,VWS V14.00,2013-01-17 10:08:00,
2013-01-17 05:10:00,42.0,41.2,29.96,ENE,61,0.0,8.0,97,0.00,,---,0.06,VWS V14.00,2013-01-17 10:10:00,
2013-01-17 05:13:00,42.9,42.1,29.96,NE,45,2.0,8.0,97,0.00,,---,0.06,VWS V14.00,2013-01-17 10:13:00,
2013-01-17 05:18:00,42.8,42.0,29.96,North,5,1.0,8.0,97,0.00,,---,0.06,VWS V14.00,2013-01-17 10:18:00,
2013-01-17 05:20:00,41.8,41.0,29.95,NE,47,4.0,7.0,97,0.00,,---,0.06,VWS V14.00,2013-01-17 10:20:00,
2013-01-17 05:23:00,42.8,42.0,29.96,NW,321,2.0,2.0,97,0.00,,---,0.06,VWS V14.00,2013-01-17 10:23:00,
2013-01-17 05:28:00,42.8,42.0,29.96,South,178,0.0,4.0,97,0.00,,---,0.06,VWS V14.00,2013-01-17 10:28:00,
2013-01-17 05:30:00,41.6,40.8,29.95,NNE,32,1.0,8.0,97,0.00,,---,0.06,VWS V14.00,2013-01-17 10:30:00,
2013-01-17 05:33:00,42.7,41.9,29.96,NE,49,0.0,5.0,97,0.00,,---,0.06,VWS V14.00,2013-01-17 10:33:00,
2013-01-17 05:38:00,42.6,41.8,29.96,NE,50,0.0,9.0,97,0.00,,---,0.06,VWS V14.00,2013-01-17 10:38:00,
2013-01-17 05:40:00,41.4,40.3,29.95,NE,40,4.0,8.0,96,0.00,,---,0.06,VWS V14.00,2013-01-17 10:40:00,
2013-01-17 05:43:00,42.5,41.7,29.95,East,81,0.0,4.0,97,0.00,,---,0.06,VWS V14.00,2013-01-17 10:43:00,
2013-01-17 05:48:00,42.4,41.6,29.96,NNE,24,0.0,9.0,97,0.00,,---,0.06,VWS V14.00,2013-01-17 10:48:00,
2013-01-17 05:50:00,41.1,40.0,29.94,NNW,343,4.0,9.0,96,0.00,,---,0.06,VWS V14.00,2013-01-17 10:50:00,
2013-01-17 05:53:00,42.3,41.5,29.95,East,88,1.0,8.0,97,0.00,,---,0.06,VWS V14.00,2013-01-17 10:53:00,
2013-01-17 05:58:00,42.2,41.1,29.96,East,80,1.0,8.0,96,0.00,,---,0.06,VWS V14.00,2013-01-17 10:58:00,
2013-01-17 06:00:00,41.0,40.0,29.94,NE,51,1.0,11.0,96,0.00,,---,0.06,VWS V14.00,2013-01-17 11:00:00,
2013-01-17 06:03:00,42.1,41.0,29.96,WNW,287,2.0,4.0,96,0.00,,---,0.06,VWS V14.00,2013-01-17 11:03:00,
2013-01-17 06:08:00,42.0,41.2,29.96,NE,35,1.0,8.0,97,0.00,,---,0.06,VWS V14.00,2013-01-17 11:08:00,
2013-01-17 06:10:00,40.8,39.8,29.94,NNE,15,8.0,8.0,96,0.00,,---,0.06,VWS V14.00,2013-01-17 11:10:00,
2013-01-17 06:13:00,42.0,41.2,29.96,ENE,75,4.0,6.0,97,0.00,,---,0.06,VWS V14.00,2013-01-17 11:13:00,
2013-01-17 06:18:00,41.9,41.1,29.95,ENE,63,2.0,7.0,97,0.00,,---,0.06,VWS V14.00,2013-01-17 11:18:00,
2013-01-17 06:20:00,40.7,39.7,29.94,NE,51,1.0,8.0,96,0.00,,---,0.06,VWS V14.00,2013-01-17 11:20:00,
2013-01-17 06:23:00,41.8,41.0,29.95,East,90,0.0,5.0,97,0.00,,---,0.06,VWS V14.00,2013-01-17 11:23:00,
2013-01-17 06:28:00,41.7,40.9,29.95,NE,39,4.0,8.0,97,0.00,,---,0.06,VWS V14.00,2013-01-17 11:28:00,
2013-01-17 06:30:00,40.5,39.2,29.94,North,360,1.0,12.0,95,0.00,,---,0.07,VWS V14.00,2013-01-17 11:30:00,
2013-01-17 06:33:00,41.6,40.5,29.94,NE,54,5.0,6.0,96,0.00,,---,0.06,VWS V14.00,2013-01-17 11:33:00,
2013-01-17 06:38:00,41.5,40.5,29.94,North,350,4.0,8.0,96,0.00,,---,0.06,VWS V14.00,2013-01-17 11:38:00,
2013-01-17 06:40:00,40.2,38.9,29.95,NNE,25,1.0,12.0,95,0.05,,---,0.08,VWS V14.00,2013-01-17 11:40:00,
2013-01-17 06:43:00,41.4,40.3,29.95,North,355,2.0,7.0,96,0.00,,---,0.06,VWS V14.00,2013-01-17 11:43:00,
2013-01-17 06:48:00,41.2,40.2,29.95,NE,45,2.0,9.0,96,0.00,,---,0.06,VWS V14.00,2013-01-17 11:48:00,
2013-01-17 06:50:00,40.0,38.7,29.94,ENE,73,2.0,8.0,95,0.05,,---,0.08,VWS V14.00,2013-01-17 11:50:00,
2013-01-17 06:53:00,41.1,40.0,29.95,SSE,160,2.0,10.0,96,0.00,,---,0.06,VWS V14.00,2013-01-17 11:53:00,
2013-01-17 06:58:00,41.0,40.0,29.94,NE,34,6.0,11.0,96,0.00,,---,0.06,VWS V14.00,2013-01-17 11:58:00,
2013-01-17 07:00:00,39.8,38.5,29.93,North,5,3.0,8.0,95,0.04,,---,0.09,VWS V14.00,2013-01-17 12:00:00,
2013-01-17 07:03:00,40.9,39.8,29.94,NE,34,0.0,8.0,96,0.00,,---,0.06,VWS V14.00,2013-01-17 12:03:00,
2013-01-17 07:08:00,40.9,39.8,29.94,NNW,346,4.0,8.0,96,0.00,,---,0.06,VWS V14.00,2013-01-17 12:08:00,
2013-01-17 07:10:00,39.8,38.8,29.93,NNW,339,3.0,12.0,96,0.04,,---,0.09,VWS V14.00,2013-01-17 12:10:00,
2013-01-17 07:13:00,40.7,39.7,29.94,WNW,302,1.0,8.0,96,0.00,,---,0.06,VWS V14.00,2013-01-17 12:13:00,
2013-01-17 07:18:00,40.7,39.7,29.94,NNE,32,2.0,8.0,96,0.00,,---,0.06,VWS V14.00,2013-01-17 12:18:00,
2013-01-17 07:20:00,39.8,38.8,29.94,ENE,58,0.0,9.0,96,0.00,,---,0.09,VWS V14.00,2013-01-17 12:20:00,
2013-01-17 07:23:00,40.6,39.5,29.95,NNE,17,0.0,12.0,96,0.00,,---,0.06,VWS V14.00,2013-01-17 12:23:00,
2013-01-17 07:28:00,40.5,39.2,29.94,NE,53,2.0,12.0,95,0.00,,---,0.06,VWS V14.00,2013-01-17 12:28:00,
2013-01-17 07:30:00,39.9,38.8,29.94,NE,41,4.0,9.0,96,0.00,,---,0.10,VWS V14.00,2013-01-17 12:30:00,
2013-01-17 07:33:00,40.4,39.1,29.95,NNW,343,4.0,12.0,95,0.00,,---,0.07,VWS V14.00,2013-01-17 12:33:00,
2013-01-17 07:38:00,40.3,39.0,29.95,NNE,14,1.0,12.0,95,0.00,,---,0.07,VWS V14.00,2013-01-17 12:38:00,
2013-01-17 07:40:00,40.0,39.0,29.95,NW,325,0.0,6.0,96,0.04,,---,0.11,VWS V14.00,2013-01-17 12:40:00,
2013-01-17 07:43:00,40.2,38.9,29.95,NNE,24,0.0,1.0,95,0.05,,---,0.08,VWS V14.00,2013-01-17 12:43:00,
2013-01-17 07:48:00,40.1,38.8,29.94,NNE,25,0.0,8.0,95,0.05,,---,0.08,VWS V14.00,2013-01-17 12:48:00,
2013-01-17 07:50:00,40.1,39.0,29.95,ESE,115,1.0,6.0,96,0.04,,---,0.11,VWS V14.00,2013-01-17 12:50:00,
2013-01-17 07:53:00,40.0,38.7,29.94,NNE,31,1.0,6.0,95,0.05,,---,0.08,VWS V14.00,2013-01-17 12:53:00,
2013-01-17 07:58:00,39.9,38.6,29.93,WNW,294,4.0,8.0,95,0.04,,---,0.09,VWS V14.00,2013-01-17 12:58:00,
2013-01-17 08:00:00,40.0,39.0,29.92,South,184,3.0,10.0,96,0.00,,---,0.11,VWS V14.00,2013-01-17 13:00:00,
2013-01-17 08:03:00,39.8,38.5,29.92,NE,36,0.0,12.0,95,0.04,,---,0.09,VWS V14.00,2013-01-17 13:03:00,
2013-01-17 08:08:00,39.8,38.8,29.92,NNE,24,0.0,12.0,96,0.04,,---,0.09,VWS V14.00,2013-01-17 13:08:00,
2013-01-17 08:10:00,39.8,38.8,29.92,NNE,30,0.0,9.0,96,0.00,,---,0.12,VWS V14.00,2013-01-17 13:10:00,
2013-01-17 08:13:00,39.8,38.8,29.94,North,360,0.0,3.0,96,0.00,,---,0.09,VWS V14.00,2013-01-17 13:13:00,
2013-01-17 08:18:00,39.8,38.8,29.93,WSW,242,2.0,9.0,96,0.00,,---,0.09,VWS V14.00,2013-01-17 13:18:00,
2013-01-17 08:20:00,39.6,38.6,29.94,WSW,252,0.0,10.0,96,0.00,,---,0.12,VWS V14.00,2013-01-17 13:20:00,
2013-01-17 08:23:00,39.9,38.8,29.94,ENE,58,0.0,2.0,96,0.00,,---,0.10,VWS V14.00,2013-01-17 13:23:00,
2013-01-17 08:28:00,39.9,38.8,29.94,NNE,20,0.0,6.0,96,0.00,,---,0.10,VWS V14.00,2013-01-17 13:28:00,
2013-01-17 08:30:00,39.6,38.6,29.93,SE,138,1.0,7.0,96,0.53,,---,0.14,VWS V14.00,2013-01-17 13:30:00,
2013-01-17 08:33:00,40.0,39.0,29.94,North,350,0.0,6.0,96,0.00,,---,0.10,VWS V14.00,2013-01-17 13:33:00,
2013-01-17 08:38:00,40.0,39.0,29.95,NE,34,4.0,6.0,96,0.04,,---,0.11,VWS V14.00,2013-01-17 13:38:00,
2013-01-17 08:40:00,39.6,38.6,29.92,NNE,17,0.0,6.0,96,0.12,,---,0.17,VWS V14.00,2013-01-17 13:40:00,
2013-01-17 08:43:00,40.1,39.0,29.95,North,360,6.0,6.0,96,0.04,,---,0.11,VWS V14.00,2013-01-17 13:43:00,
2013-01-17 08:48:00,40.1,39.0,29.95,NE,34,4.0,6.0,96,0.04,,---,0.11,VWS V14.00,2013-01-17 13:48:00,
2013-01-17 08:50:00,39.5,38.7,29.93,NNE,26,2.0,10.0,97,0.05,,---,0.17,VWS V14.00,2013-01-17 13:50:00,
2013-01-17 08:53:00,40.1,39.0,29.95,NE,47,1.0,4.0,96,0.04,,---,0.11,VWS V14.00,2013-01-17 13:53:00,
2013-01-17 08:58:00,40.1,39.0,29.94,NE,35,2.0,5.0,96,0.00,,---,0.11,VWS V14.00,2013-01-17 13:58:00,
2013-01-17 09:00:00,39.5,38.5,29.92,North,5,3.0,8.0,96,0.00,,---,0.18,VWS V14.00,2013-01-17 14:00:00,
2013-01-17 09:03:00,40.0,39.0,29.92,NE,35,1.0,9.0,96,0.00,,---,0.12,VWS V14.00,2013-01-17 14:03:00,
2013-01-17 09:08:00,39.9,38.8,29.92,NE,44,1.0,9.0,96,0.00,,---,0.12,VWS V14.00,2013-01-17 14:08:00,
2013-01-17 09:10:00,39.4,38.4,29.90,NE,44,3.0,11.0,96,0.08,,---,0.19,VWS V14.00,2013-01-17 14:10:00,
2013-01-17 09:13:00,39.8,38.8,29.92,NE,54,0.0,10.0,96,0.00,,---,0.12,VWS V14.00,2013-01-17 14:13:00,
2013-01-17 09:18:00,39.7,38.7,29.93,ESE,106,0.0,10.0,96,0.00,,---,0.12,VWS V14.00,2013-01-17 14:18:00,
2013-01-17 09:20:00,39.3,38.3,29.89,West,273,0.0,9.0,96,0.06,,---,0.20,VWS V14.00,2013-01-17 14:20:00,
2013-01-17 09:23:00,39.6,38.6,29.95,East,89,1.0,7.0,96,0.00,,---,0.12,VWS V14.00,2013-01-17 14:23:00,
2013-01-17 09:28:00,39.6,38.6,29.94,NNE,26,3.0,7.0,96,0.00,,---,0.12,VWS V14.00,2013-01-17 14:28:00,
2013-01-17 09:30:00,39.3,38.5,29.88,North,5,1.0,10.0,97,0.04,,---,0.21,VWS V14.00,2013-01-17 14:30:00,
2013-01-17 09:33:00,39.6,38.6,29.92,East,82,2.0,5.0,96,0.48,,---,0.16,VWS V14.00,2013-01-17 14:33:00,
2013-01-17 09:38:00,39.6,38.6,29.92,NE,46,1.0,6.0,96,0.12,,---,0.17,VWS V14.00,2013-01-17 14:38:00,
2013-01-17 09:40:00,39.3,38.5,29.89,ENE,69,3.0,12.0,97,0.04,,---,0.21,VWS V14.00,2013-01-17 14:40:00,
2013-01-17 09:43:00,39.6,38.6,29.91,NW,311,0.0,8.0,96,0.12,,---,0.17,VWS V14.00,2013-01-17 14:43:00,
2013-01-17 09:48:00,39.6,38.8,29.92,East,84,1.0,10.0,97,0.06,,---,0.17,VWS V14.00,2013-01-17 14:48:00,
2013-01-17 09:50:00,39.6,38.8,29.91,NNE,13,7.0,10.0,97,0.12,,---,0.23,VWS V14.00,2013-01-17 14:50:00,
2013-01-17 09:53:00,39.5,38.7,29.94,NNE,23,2.0,6.0,97,0.04,,---,0.17,VWS V14.00,2013-01-17 14:53:00,
2013-01-17 09:58:00,39.5,38.5,29.92,NE,35,6.0,8.0,96,0.00,,---,0.17,VWS V14.00,2013-01-17 14:58:00,
2013-01-17 10:00:00,39.7,38.9,29.87,NE,45,6.0,12.0,97,0.10,,---,0.24,VWS V14.00,2013-01-17 15:00:00,
2013-01-17 10:03:00,39.5,38.5,29.91,ENE,62,1.0,6.0,96,0.00,,---,0.18,VWS V14.00,2013-01-17 15:03:00,
2013-01-17 10:08:00,39.4,38.4,29.91,NE,46,1.0,7.0,96,0.13,,---,0.19,VWS V14.00,2013-01-17 15:08:00,
2013-01-17 10:10:00,39.9,39.1,29.85,NNE,22,4.0,11.0,97,0.04,,---,0.24,VWS V14.00,2013-01-17 15:10:00,
2013-01-17 10:13:00,39.3,38.3,29.91,East,81,0.0,9.0,96,0.06,,---,0.19,VWS V14.00,2013-01-17 15:13:00,
2013-01-17 10:18:00,39.3,38.3,29.90,NE,34,2.0,9.0,96,0.06,,---,0.20,VWS V14.00,2013-01-17 15:18:00,
2013-01-17 10:20:00,40.1,39.3,29.87,NNE,18,5.0,10.0,97,0.00,,---,0.24,VWS V14.00,2013-01-17 15:20:00,
2013-01-17 10:23:00,39.4,38.6,29.88,North,360,2.0,7.0,97,0.06,,---,0.20,VWS V14.00,2013-01-17 15:23:00,
2013-01-17 10:27:00,39.3,38.5,29.88,ENE,63,4.0,10.0,97,0.04,,---,0.21,VWS V14.00,2013-01-17 15:27:00,
2013-01-17 10:30:00,40.3,39.5,29.84,NE,55,4.0,11.0,97,0.00,,---,0.24,VWS V14.00,2013-01-17 15:30:00,
2013-01-17 10:32:00,39.3,38.5,29.89,NE,48,1.0,6.0,97,0.04,,---,0.21,VWS V14.00,2013-01-17 15:32:00,
2013-01-17 10:37:00,39.3,38.5,29.89,West,267,1.0,12.0,97,0.04,,---,0.21,VWS V14.00,2013-01-17 15:37:00,
2013-01-17 10:40:00,40.6,39.8,29.82,NE,51,0.0,9.0,97,0.00,,---,0.24,VWS V14.00,2013-01-17 15:40:00,
2013-01-17 10:42:00,39.4,38.6,29.90,NNW,343,0.0,8.0,97,0.04,,---,0.21,VWS V14.00,2013-01-17 15:42:00,
2013-01-17 10:47:00,39.5,38.7,29.90,SE,131,5.0,10.0,97,0.04,,---,0.22,VWS V14.00,2013-01-17 15:47:00,
2013-01-17 10:50:00,40.7,39.9,29.80,NE,43,6.0,8.0,97,0.00,,---,0.24,VWS V14.00,2013-01-17 15:50:00,
2013-01-17 10:52:00,39.5,38.7,29.89,North,355,4.0,12.0,97,0.12,,---,0.23,VWS V14.00,2013-01-17 15:52:00,
2013-01-17 10:57:00,39.6,38.8,29.87,NE,40,4.0,12.0,97,0.13,,---,0.24,VWS V14.00,2013-01-17 15:57:00,
2013-01-17 11:00:00,40.9,40.1,29.79,ENE,75,5.0,9.0,97,0.00,,---,0.24,VWS V14.00,2013-01-17 16:00:00,
2013-01-17 11:02:00,39.8,39.0,29.85,NNE,29,8.0,8.0,97,0.07,,---,0.24,VWS V14.00,2013-01-17 16:02:00,
2013-01-17 11:07:00,39.9,39.1,29.86,NE,46,2.0,11.0,97,0.05,,---,0.24,VWS V14.00,2013-01-17 16:07:00,
2013-01-17 11:10:00,41.0,40.2,29.79,NNW,334,1.0,12.0,97,0.00,,---,0.24,VWS V14.00,2013-01-17 16:10:00,
2013-01-17 11:12:00,40.0,39.2,29.85,NE,50,2.0,10.0,97,0.00,,---,0.24,VWS V14.00,2013-01-17 16:12:00,
2013-01-17 11:17:00,40.1,39.3,29.87,NE,42,4.0,10.0,97,0.00,,---,0.24,VWS V14.00,2013-01-17 16:17:00,
2013-01-17 11:20:00,41.1,40.3,29.79,East,90,4.0,10.0,97,0.00,,---,0.24,VWS V14.00,2013-01-17 16:20:00,
2013-01-17 11:22:00,40.1,39.3,29.86,NE,39,4.0,7.0,97,0.00,,---,0.24,VWS V14.00,2013-01-17 16:22:00,
2013-01-17 11:27:00,40.3,39.5,29.84,East,85,5.0,11.0,97,0.00,,---,0.24,VWS V14.00,2013-01-17 16:27:00,
2013-01-17 11:30:00,41.0,40.0,29.78,ENE,57,1.0,10.0,96,0.00,,---,0.24,VWS V14.00,2013-01-17 16:30:00,
2013-01-17 11:32:00,40.4,39.6,29.83,North,5,5.0,6.0,97,0.00,,---,0.24,VWS V14.00,2013-01-17 16:32:00,
2013-01-17 11:37:00,40.5,39.7,29.83,NNE,29,2.0,9.0,97,0.00,,---,0.24,VWS V14.00,2013-01-17 16:37:00,
2013-01-17 11:40:00,40.8,39.8,29.77,NE,48,5.0,12.0,96,0.00,,---,0.24,VWS V14.00,2013-01-17 16:40:00,
2013-01-17 11:42:00,40.6,39.8,29.82,SE,146,2.0,2.0,97,0.00,,---,0.24,VWS V14.00,2013-01-17 16:42:00,
2013-01-17 11:47:00,40.7,39.9,29.81,NNE,31,2.0,7.0,97,0.00,,---,0.24,VWS V14.00,2013-01-17 16:47:00,
2013-01-17 11:50:00,40.4,39.1,29.76,NE,42,5.0,19.0,95,0.00,,---,0.25,VWS V14.00,2013-01-17 16:50:00,
2013-01-17 11:52:00,40.7,39.9,29.81,NNE,19,5.0,6.0,97,0.00,,---,0.24,VWS V14.00,2013-01-17 16:52:00,
2013-01-17 11:57:00,40.9,40.1,29.81,NE,56,0.0,9.0,97,0.00,,---,0.24,VWS V14.00,2013-01-17 16:57:00,
2013-01-17 12:00:00,40.2,38.9,29.74,NE,39,0.0,8.0,95,0.00,,---,0.25,VWS V14.00,2013-01-17 17:00:00,
2013-01-17 12:02:00,40.9,40.1,29.81,ESE,109,1.0,10.0,97,0.00,,---,0.24,VWS V14.00,2013-01-17 17:02:00,
2013-01-17 12:07:00,41.0,40.2,29.80,NNW,336,0.0,10.0,97,0.00,,---,0.24,VWS V14.00,2013-01-17 17:07:00,
2013-01-17 12:10:00,40.2,38.9,29.72,NE,38,8.0,13.0,95,0.00,,---,0.25,VWS V14.00,2013-01-17 17:10:00,
2013-01-17 12:12:00,41.0,40.2,29.78,NNE,17,5.0,8.0,97,0.00,,---,0.24,VWS V14.00,2013-01-17 17:12:00,
2013-01-17 12:17:00,41.1,40.3,29.78,ENE,67,7.0,10.0,97,0.00,,---,0.24,VWS V14.00,2013-01-17 17:17:00,
2013-01-17 12:20:00,40.0,38.7,29.73,ENE,74,4.0,8.0,95,0.00,,---,0.25,VWS V14.00,2013-01-17 17:20:00,
2013-01-17 12:22:00,41.1,40.3,29.78,NNE,22,2.0,10.0,97,0.00,,---,0.24,VWS V14.00,2013-01-17 17:22:00,
2013-01-17 12:27:00,41.1,40.3,29.79,North,360,5.0,10.0,97,0.00,,---,0.24,VWS V14.00,2013-01-17 17:27:00,
2013-01-17 12:30:00,39.9,38.6,29.75,North,9,6.0,12.0,95,0.00,,---,0.25,VWS V14.00,2013-01-17 17:30:00,
2013-01-17 12:32:00,41.0,40.0,29.78,NNE,13,5.0,6.0,96,0.00,,---,0.24,VWS V14.00,2013-01-17 17:32:00,
2013-01-17 12:37:00,40.9,39.8,29.77,SSE,155,4.0,6.0,96,0.00,,---,0.24,VWS V14.00,2013-01-17 17:37:00,
2013-01-17 12:40:00,39.7,38.1,29.76,NE,34,10.0,15.0,94,0.00,,---,0.25,VWS V14.00,2013-01-17 17:40:00,
2013-01-17 12:42:00,40.7,39.7,29.77,East,81,2.0,7.0,96,0.00,,---,0.24,VWS V14.00,2013-01-17 17:42:00,
2013-01-17 12:47:00,40.6,39.5,29.76,NW,321,3.0,11.0,96,0.00,,---,0.24,VWS V14.00,2013-01-17 17:47:00,
2013-01-17 12:50:00,39.5,37.9,29.76,SE,126,5.0,13.0,94,0.00,,---,0.25,VWS V14.00,2013-01-17 17:50:00,
2013-01-17 12:52:00,40.4,39.1,29.75,SW,236,2.0,8.0,95,0.00,,---,0.25,VWS V14.00,2013-01-17 17:52:00,
2013-01-17 12:57:00,40.3,39.0,29.75,ESE,105,2.0,8.0,95,0.00,,---,0.25,VWS V14.00,2013-01-17 17:57:00,
2013-01-17 13:00:00,39.5,37.9,29.79,West,261,4.0,13.0,94,0.00,,---,0.26,VWS V14.00,2013-01-17 18:00:00,
2013-01-17 13:02:00,40.2,39.2,29.73,NNE,17,5.0,10.0,96,0.00,,---,0.25,VWS V14.00,2013-01-17 18:02:00,
2013-01-17 13:07:00,40.2,38.9,29.72,NE,51,2.0,13.0,95,0.00,,---,0.25,VWS V14.00,2013-01-17 18:07:00,
2013-01-17 13:10:00,39.7,38.4,29.82,North,5,2.0,18.0,95,0.38,,---,0.32,VWS V14.00,2013-01-17 18:10:00,
2013-01-17 13:12:00,40.2,38.9,29.72,NNW,347,4.0,8.0,95,0.00,,---,0.25,VWS V14.00,2013-01-17 18:12:00,
2013-01-17 13:17:00,40.1,38.8,29.72,NNE,25,8.0,8.0,95,0.00,,---,0.25,VWS V14.00,2013-01-17 18:17:00,
2013-01-17 13:20:00,39.6,38.3,29.82,North,11,3.0,8.0,95,0.26,,---,0.35,VWS V14.00,2013-01-17 18:20:00,
2013-01-17 13:22:00,40.0,38.7,29.73,NW,311,1.0,8.0,95,0.00,,---,0.25,VWS V14.00,2013-01-17 18:22:00,
2013-01-17 13:27:00,39.9,38.6,29.74,NNE,30,9.0,12.0,95,0.00,,---,0.25,VWS V14.00,2013-01-17 18:27:00,
2013-01-17 13:30:00,39.6,38.3,29.82,ESE,115,1.0,9.0,95,0.06,,---,0.36,VWS V14.00,2013-01-17 18:30:00,
2013-01-17 13:32:00,39.8,38.2,29.75,NNE,13,5.0,15.0,94,0.00,,---,0.25,VWS V14.00,2013-01-17 18:32:00,
2013-01-17 13:37:00,39.7,38.1,29.76,NE,40,3.0,15.0,94,0.00,,---,0.25,VWS V14.00,2013-01-17 18:37:00,
2013-01-17 13:40:00,39.6,38.3,29.81,ENE,57,4.0,13.0,95,0.05,,---,0.36,VWS V14.00,2013-01-17 18:40:00,
2013-01-17 13:42:00,39.6,38.0,29.77,ENE,68,1.0,9.0,94,0.00,,---,0.25,VWS V14.00,2013-01-17 18:42:00,
2013-01-17 13:47:00,39.5,37.9,29.76,North,360,6.0,13.0,94,0.00,,---,0.25,VWS V14.00,2013-01-17 18:47:00,
2013-01-17 13:50:00,39.7,38.4,29.81,ESE,108,1.0,13.0,95,0.04,,---,0.37,VWS V14.00,2013-01-17 18:50:00,
2013-01-17 13:52:00,39.5,37.9,29.77,ENE,71,4.0,6.0,94,0.00,,---,0.25,VWS V14.00,2013-01-17 18:52:00,
2013-01-17 13:57:00,39.5,37.9,29.77,North,10,6.0,13.0,94,0.00,,---,0.25,VWS V14.00,2013-01-17 18:57:00,
2013-01-17 14:00:00,40.0,39.0,29.82,ENE,78,4.0,10.0,96,0.04,,---,0.37,VWS V14.00,2013-01-17 19:00:00,
2013-01-17 14:02:00,39.5,38.2,29.80,East,101,1.0,4.0,95,0.18,,---,0.27,VWS V14.00,2013-01-17 19:02:00,
2013-01-17 14:07:00,39.6,38.3,29.83,SE,128,4.0,18.0,95,0.70,,---,0.30,VWS V14.00,2013-01-17 19:07:00,
2013-01-17 14:10:00,39.9,38.6,29.83,WSW,242,5.0,12.0,95,0.00,,---,0.37,VWS V14.00,2013-01-17 19:10:00,
2013-01-17 14:12:00,39.7,38.4,29.83,NNE,20,0.0,4.0,95,0.28,,---,0.33,VWS V14.00,2013-01-17 19:12:00,
2013-01-17 14:17:00,39.6,38.3,29.83,NNW,346,8.0,8.0,95,0.12,,---,0.34,VWS V14.00,2013-01-17 19:17:00,
2013-01-17 14:20:00,39.6,38.3,29.84,NNE,19,5.0,8.0,95,0.00,,---,0.37,VWS V14.00,2013-01-17 19:20:00,
2013-01-17 14:22:00,39.6,38.3,29.82,ESE,105,5.0,9.0,95,0.14,,---,0.35,VWS V14.00,2013-01-17 19:22:00,
2013-01-17 14:27:00,39.5,38.2,29.82,NNE,26,0.0,9.0,95,0.06,,---,0.35,VWS V14.00,2013-01-17 19:27:00,
2013-01-17 14:30:00,39.5,38.2,29.84,NW,321,0.0,8.0,95,0.00,,---,0.37,VWS V14.00,2013-01-17 19:30:00,
2013-01-17 14:32:00,39.6,38.3,29.82,West,271,2.0,11.0,95,0.06,,---,0.36,VWS V14.00,2013-01-17 19:32:00,
2013-01-17 14:37:00,39.6,38.3,29.80,NW,316,3.0,11.0,95,0.06,,---,0.36,VWS V14.00,2013-01-17 19:37:00,
2013-01-17 14:40:00,39.4,38.1,29.84,North,5,2.0,10.0,95,0.00,,---,0.38,VWS V14.00,2013-01-17 19:40:00,
2013-01-17 14:42:00,39.6,38.3,29.81,NNE,28,2.0,6.0,95,0.04,,---,0.36,VWS V14.00,2013-01-17 19:42:00,
2013-01-17 14:47:00,39.6,38.3,29.81,ENE,58,5.0,13.0,95,0.04,,---,0.37,VWS V14.00,2013-01-17 19:47:00,
2013-01-17 14:50:00,39.3,38.0,29.85,East,82,3.0,7.0,95,0.00,,---,0.38,VWS V14.00,2013-01-17 19:50:00,
2013-01-17 14:52:00,39.7,38.4,29.81,NNE,25,4.0,6.0,95,0.04,,---,0.37,VWS V14.00,2013-01-17 19:52:00,
2013-01-17 14:57:00,39.9,38.8,29.81,NW,318,0.0,9.0,96,0.04,,---,0.37,VWS V14.00,2013-01-17 19:57:00,
2013-01-17 15:00:00,39.1,37.5,29.86,North,355,4.0,11.0,94,0.00,,---,0.38,VWS V14.00,2013-01-17 20:00:00,
2013-01-17 15:02:00,40.0,39.0,29.82,NW,311,1.0,6.0,96,0.00,,---,0.37,VWS V14.00,2013-01-17 20:02:00,
2013-01-17 15:07:00,40.0,38.7,29.83,NNE,15,2.0,7.0,95,0.00,,---,0.37,VWS V14.00,2013-01-17 20:07:00,
2013-01-17 15:10:00,38.8,37.2,29.88,NE,37,1.0,11.0,94,0.00,,---,0.39,VWS V14.00,2013-01-17 20:10:00,
2013-01-17 15:12:00,39.8,38.5,29.83,NNE,27,6.0,7.0,95,0.00,,---,0.37,VWS V14.00,2013-01-17 20:12:00,
2013-01-17 15:17:00,39.7,38.4,29.83,NW,317,1.0,8.0,95,0.00,,---,0.37,VWS V14.00,2013-01-17 20:17:00,
2013-01-17 15:20:00,38.2,36.6,29.90,NNE,24,8.0,14.0,94,0.00,,---,0.39,VWS V14.00,2013-01-17 20:20:00,
2013-01-17 15:22:00,39.6,38.3,29.84,SSE,157,6.0,8.0,95,0.00,,---,0.37,VWS V14.00,2013-01-17 20:22:00,
2013-01-17 15:27:00,39.5,38.2,29.84,NE,40,2.0,8.0,95,0.00,,---,0.37,VWS V14.00,2013-01-17 20:27:00,
2013-01-17 15:30:00,37.5,35.9,29.91,SSW,202,5.0,15.0,94,0.00,,---,0.39,VWS V14.00,2013-01-17 20:30:00,
2013-01-17 15:32:00,39.5,38.2,29.84,North,350,3.0,10.0,95,0.00,,---,0.38,VWS V14.00,2013-01-17 20:32:00,
2013-01-17 15:37:00,39.4,38.1,29.84,NW,315,4.0,10.0,95,0.00,,---,0.38,VWS V14.00,2013-01-17 20:37:00,
2013-01-17 15:40:00,37.3,35.7,29.92,NNW,334,7.0,10.0,94,0.00,,---,0.40,VWS V14.00,2013-01-17 20:40:00,
2013-01-17 15:42:00,39.3,38.0,29.84,NE,51,5.0,6.0,95,0.00,,---,0.38,VWS V14.00,2013-01-17 20:42:00,
2013-01-17 15:47:00,39.3,38.0,29.85,NNW,343,3.0,7.0,95,0.00,,---,0.38,VWS V14.00,2013-01-17 20:47:00,
2013-01-17 15:50:00,37.2,35.6,29.93,SSW,193,4.0,13.0,94,0.00,,---,0.40,VWS V14.00,2013-01-17 20:50:00,
2013-01-17 15:52:00,39.2,37.9,29.85,North,351,2.0,8.0,95,0.00,,---,0.38,VWS V14.00,2013-01-17 20:52:00,
2013-01-17 15:57:00,39.2,37.9,29.85,SSE,150,3.0,9.0,95,0.00,,---,0.38,VWS V14.00,2013-01-17 20:57:00,
2013-01-17 16:00:00,37.0,35.4,29.96,NNW,338,1.0,14.0,94,0.00,,---,0.41,VWS V14.00,2013-01-17 21:00:00,
2013-01-17 16:02:00,39.1,37.5,29.87,West,264,4.0,5.0,94,0.00,,---,0.38,VWS V14.00,2013-01-17 21:02:00,
2013-01-17 16:07:00,39.0,37.4,29.87,NW,323,3.0,7.0,94,0.00,,---,0.39,VWS V14.00,2013-01-17 21:07:00,
2013-01-17 16:10:00,36.6,35.0,29.98,East,86,3.0,11.0,94,0.12,,---,0.43,VWS V14.00,2013-01-17 21:10:00,
2013-01-17 16:12:00,38.7,37.1,29.89,ENE,58,4.0,6.0,94,0.00,,---,0.39,VWS V14.00,2013-01-17 21:12:00,
2013-01-17 16:17:00,38.4,36.8,29.89,SSE,150,5.0,14.0,94,0.00,,---,0.39,VWS V14.00,2013-01-17 21:17:00,
2013-01-17 16:20:00,36.1,34.5,30.00,NNE,19,7.0,9.0,94,0.12,,---,0.45,VWS V14.00,2013-01-17 21:20:00,
2013-01-17 16:22:00,38.0,36.4,29.90,NNE,24,15.0,15.0,94,0.00,,---,0.39,VWS V14.00,2013-01-17 21:22:00,
2013-01-17 16:27:00,37.7,36.1,29.91,West,268,1.0,15.0,94,0.00,,---,0.39,VWS V14.00,2013-01-17 21:27:00,
2013-01-17 16:30:00,34.9,33.3,30.02,ENE,70,1.0,12.0,94,0.10,,---,0.46,VWS V14.00,2013-01-17 21:30:00,
2013-01-17 16:32:00,37.5,35.9,29.91,South,183,4.0,8.0,94,0.00,,---,0.39,VWS V14.00,2013-01-17 21:32:00,
2013-01-17 16:37:00,37.3,35.7,29.91,North,5,4.0,10.0,94,0.00,,---,0.39,VWS V14.00,2013-01-17 21:37:00,
2013-01-17 16:40:00,34.3,33.0,30.03,NNW,336,3.0,7.0,95,0.08,,---,0.48,VWS V14.00,2013-01-17 21:40:00,
2013-01-17 16:42:00,37.2,35.6,29.92,SW,235,0.0,8.0,94,0.00,,---,0.40,VWS V14.00,2013-01-17 21:42:00,
2013-01-17 16:47:00,37.2,35.6,29.93,West,274,2.0,12.0,94,0.00,,---,0.40,VWS V14.00,2013-01-17 21:47:00,
2013-01-17 16:50:00,34.4,33.1,30.05,SSE,157,4.0,13.0,95,0.07,,---,0.49,VWS V14.00,2013-01-17 21:50:00,
2013-01-17 16:52:00,37.2,35.6,29.94,NW,306,1.0,10.0,94,0.00,,---,0.40,VWS V14.00,2013-01-17 21:52:00,
2013-01-17 16:57:00,37.1,35.5,29.95,NNE,16,2.0,14.0,94,0.00,,---,0.41,VWS V14.00,2013-01-17 21:57:00,
2013-01-17 17:00:00,34.9,33.9,30.07,NW,308,0.0,11.0,96,0.08,,---,0.51,VWS V14.00,2013-01-17 22:00:00,
2013-01-17 17:02:00,37.0,35.4,29.97,NE,42,7.0,10.0,94,0.10,,---,0.42,VWS V14.00,2013-01-17 22:02:00,
2013-01-17 17:07:00,36.8,35.2,29.97,West,259,1.0,11.0,94,0.12,,---,0.43,VWS V14.00,2013-01-17 22:07:00,
2013-01-17 17:10:00,35.1,34.1,30.08,NNE,15,0.0,5.0,96,0.05,,---,0.52,VWS V14.00,2013-01-17 22:10:00,
2013-01-17 17:12:00,36.6,35.0,29.98,NNE,24,4.0,4.0,94,0.12,,---,0.43,VWS V14.00,2013-01-17 22:12:00,
2013-01-17 17:17:00,36.3,34.7,29.99,ENE,59,0.0,9.0,94,0.09,,---,0.44,VWS V14.00,2013-01-17 22:17:00,
2013-01-17 17:20:00,35.3,34.3,30.10,SSW,206,0.0,7.0,96,0.05,,---,0.52,VWS V14.00,2013-01-17 22:20:00,
2013-01-17 17:22:00,35.8,34.2,30.00,NNE,26,9.0,12.0,94,0.12,,---,0.45,VWS V14.00,2013-01-17 22:22:00,
2013-01-17 17:27:00,35.2,33.7,30.02,WSW,257,5.0,12.0,94,0.10,,---,0.46,VWS V14.00,2013-01-17 22:27:00,
2013-01-17 17:30:00,35.5,34.5,30.11,NW,313,3.0,5.0,96,0.04,,---,0.53,VWS V14.00,2013-01-17 22:30:00,
2013-01-17 17:32:00,34.7,33.2,30.03,WSW,247,1.0,7.0,94,0.10,,---,0.47,VWS V14.00,2013-01-17 22:32:00,
2013-01-17 17:37:00,34.4,32.9,30.03,WSW,244,0.0,7.0,94,0.09,,---,0.47,VWS V14.00,2013-01-17 22:37:00,
2013-01-17 17:40:00,36.0,35.0,30.14,NW,325,0.0,9.0,96,0.04,,---,0.53,VWS V14.00,2013-01-17 22:40:00,
2013-01-17 17:42:00,34.2,32.9,30.04,WNW,290,1.0,5.0,95,0.08,,---,0.48,VWS V14.00,2013-01-17 22:42:00,
2013-01-17 17:47:00,34.3,33.0,30.04,ENE,75,1.0,13.0,95,0.07,,---,0.49,VWS V14.00,2013-01-17 22:47:00,
2013-01-17 17:50:00,36.2,35.2,30.14,NNE,17,0.0,4.0,96,0.00,,---,0.54,VWS V14.00,2013-01-17 22:50:00,
2013-01-17 17:52:00,34.4,33.1,30.05,ENE,57,3.0,7.0,95,0.14,,---,0.50,VWS V14.00,2013-01-17 22:52:00,
2013-01-17 17:57:00,34.7,33.7,30.06,NNE,32,4.0,11.0,96,0.09,,---,0.50,VWS V14.00,2013-01-17 22:57:00,
2013-01-17 18:00:00,36.5,35.5,30.16,NW,308,0.0,2.0,96,0.00,,---,0.54,VWS V14.00,2013-01-17 23:00:00,
2013-01-17 18:02:00,35.0,34.0,30.07,West,269,0.0,2.0,96,0.08,,---,0.51,VWS V14.00,2013-01-17 23:02:00,
2013-01-17 18:07:00,35.0,34.0,30.08,WSW,240,0.0,5.0,96,0.06,,---,0.51,VWS V14.00,2013-01-17 23:07:00,
2013-01-17 18:10:00,36.6,35.6,30.16,SW,236,0.0,4.0,96,0.00,,---,0.54,VWS V14.00,2013-01-17 23:10:00,
2013-01-17 18:12:00,35.1,34.1,30.09,West,270,2.0,3.0,96,0.05,,---,0.52,VWS V14.00,2013-01-17 23:12:00,
2013-01-17 18:17:00,35.2,34.2,30.10,ENE,65,0.0,7.0,96,0.05,,---,0.52,VWS V14.00,2013-01-17 23:17:00,
2013-01-17 18:20:00,36.9,35.6,30.17,WNW,285,0.0,4.0,95,0.00,,---,0.55,VWS V14.00,2013-01-17 23:20:00,
2013-01-17 18:22:00,35.3,34.3,30.10,SSW,206,0.0,2.0,96,0.05,,---,0.52,VWS V14.00,2013-01-17 23:22:00,
2013-01-17 18:27:00,35.5,34.5,30.11,East,97,0.0,5.0,96,0.04,,---,0.53,VWS V14.00,2013-01-17 23:27:00,
2013-01-17 18:30:00,37.1,35.5,30.17,WNW,291,1.0,8.0,94,0.00,,---,0.55,VWS V14.00,2013-01-17 23:30:00,
2013-01-17 18:32:00,35.6,34.6,30.12,NW,315,0.0,3.0,96,0.04,,---,0.53,VWS V14.00,2013-01-17 23:32:00,
2013-01-17 18:37:00,35.8,34.8,30.13,NW,325,0.0,9.0,96,0.04,,---,0.53,VWS V14.00,2013-01-17 23:37:00,
2013-01-17 18:40:00,37.4,35.6,30.20,NNW,338,0.0,7.0,93,0.00,,---,0.55,VWS V14.00,2013-01-17 23:40:00,
2013-01-17 18:42:00,36.1,35.1,30.14,West,275,0.0,2.0,96,0.04,,---,0.53,VWS V14.00,2013-01-17 23:42:00,
2013-01-17 18:47:00,36.1,35.1,30.14,West,259,0.0,4.0,96,0.00,,---,0.54,VWS V14.00,2013-01-17 23:47:00,
2013-01-17 18:50:00,37.6,35.2,30.21,SW,225,0.0,7.0,91,0.00,,---,0.55,VWS V14.00,2013-01-17 23:50:00,
2013-01-17 18:52:00,36.2,35.2,30.15,NE,42,0.0,2.0,96,0.00,,---,0.54,VWS V14.00,2013-01-17 23:52:00,
2013-01-17 18:57:00,36.4,35.4,30.16,WNW,294,0.0,2.0,96,0.00,,---,0.54,VWS V14.00,2013-01-17 23:57:00,
2013-01-17 19:00:00,37.5,34.6,30.21,North,355,4.0,6.0,89,0.00,,---,0.55,VWS V14.00,2013-01-18 00:00:00,
2013-01-17 19:02:00,36.5,35.5,30.16,NNW,338,3.0,4.0,96,0.00,,---,0.54,VWS V14.00,2013-01-18 00:02:00,
2013-01-17 19:07:00,36.6,35.6,30.16,NNW,338,1.0,4.0,96,0.00,,---,0.54,VWS V14.00,2013-01-18 00:07:00,
2013-01-17 19:10:00,37.3,34.4,30.22,WSW,249,2.0,8.0,89,0.00,,---,0.55,VWS V14.00,2013-01-18 00:10:00,
2013-01-17 19:12:00,36.7,35.7,30.16,SW,236,0.0,4.0,96,0.00,,---,0.54,VWS V14.00,2013-01-18 00:12:00,
2013-01-17 19:17:00,36.8,35.5,30.17,WNW,285,0.0,4.0,95,0.00,,---,0.54,VWS V14.00,2013-01-18 00:17:00,
2013-01-17 19:20:00,37.1,33.9,30.22,NNW,338,2.0,6.0,88,0.00,,---,0.55,VWS V14.00,2013-01-18 00:20:00,
2013-01-17 19:22:00,36.9,35.6,30.17,WNW,285,0.0,4.0,95,0.00,,---,0.55,VWS V14.00,2013-01-18 00:22:00,
2013-01-17 19:27:00,37.0,35.7,30.17,West,276,0.0,4.0,95,0.00,,---,0.55,VWS V14.00,2013-01-18 00:27:00,
2013-01-17 19:30:00,36.8,33.6,30.22,SSW,213,0.0,5.0,88,0.00,,---,0.55,VWS V14.00,2013-01-18 00:30:00,
2013-01-17 19:32:00,37.2,35.6,30.18,SW,226,0.0,4.0,94,0.00,,---,0.55,VWS V14.00,2013-01-18 00:32:00,
2013-01-17 19:37:00,37.3,35.5,30.19,NW,315,2.0,5.0,93,0.00,,---,0.55,VWS V14.00,2013-01-18 00:37:00,
2013-01-17 19:40:00,36.6,33.1,30.22,NNW,329,0.0,9.0,87,0.00,,---,0.55,VWS V14.00,2013-01-18 00:40:00,
2013-01-17 19:42:00,37.5,35.4,30.20,North,10,2.0,7.0,92,0.00,,---,0.55,VWS V14.00,2013-01-18 00:42:00,
2013-01-17 19:47:00,37.6,35.5,30.20,SSW,213,0.0,7.0,92,0.00,,---,0.55,VWS V14.00,2013-01-18 00:47:00,
2013-01-17 19:50:00,36.4,33.2,30.23,NNW,338,0.0,9.0,88,0.00,,---,0.55,VWS V14.00,2013-01-18 00:50:00,
2013-01-17 19:52:00,37.6,35.2,30.20,NW,322,1.0,5.0,91,0.00,,---,0.55,VWS V14.00,2013-01-18 00:52:00,
2013-01-17 19:57:00,37.5,34.8,30.20,North,360,2.0,6.0,90,0.00,,---,0.55,VWS V14.00,2013-01-18 00:57:00,
2013-01-17 20:00:00,36.2,32.7,30.23,NNE,31,0.0,5.0,87,0.00,,---,0.55,VWS V14.00,2013-01-18 01:00:00,
2013-01-17 20:02:00,37.5,34.6,30.21,East,79,7.0,8.0,89,0.00,,---,0.55,VWS V14.00,2013-01-18 01:02:00,
2013-01-17 20:07:00,37.3,34.4,30.21,NE,43,1.0,8.0,89,0.00,,---,0.55,VWS V14.00,2013-01-18 01:07:00,
2013-01-17 20:10:00,36.0,32.5,30.24,West,271,0.0,6.0,87,0.00,,---,0.55,VWS V14.00,2013-01-18 01:10:00,
2013-01-17 20:12:00,37.3,34.4,30.22,WNW,283,0.0,5.0,89,0.00,,---,0.55,VWS V14.00,2013-01-18 01:12:00,
2013-01-17 20:17:00,37.2,34.0,30.22,ENE,67,4.0,6.0,88,0.00,,---,0.55,VWS V14.00,2013-01-18 01:17:00,
2013-01-17 20:20:00,35.7,32.2,30.25,SW,218,0.0,2.0,87,0.00,,---,0.55,VWS V14.00,2013-01-18 01:20:00,
2013-01-17 20:23:00,37.0,33.8,30.22,WNW,302,0.0,3.0,88,0.00,,---,0.55,VWS V14.00,2013-01-18 01:23:00,
2013-01-17 20:27:00,36.9,33.4,30.22,SSW,213,2.0,5.0,87,0.00,,---,0.55,VWS V14.00,2013-01-18 01:27:00,
2013-01-17 20:30:00,35.7,32.2,30.25,West,276,1.0,6.0,87,0.00,,---,0.55,VWS V14.00,2013-01-18 01:30:00,
2013-01-17 20:33:00,36.8,33.6,30.22,SW,222,0.0,1.0,88,0.00,,---,0.55,VWS V14.00,2013-01-18 01:33:00,
2013-01-17 20:38:00,36.6,33.1,30.22,NNE,15,0.0,9.0,87,0.00,,---,0.55,VWS V14.00,2013-01-18 01:38:00,
2013-01-17 20:40:00,35.7,32.2,30.26,West,276,0.0,2.0,87,0.00,,---,0.55,VWS V14.00,2013-01-18 01:40:00,
2013-01-17 20:42:00,36.5,33.0,30.22,NNE,15,2.0,5.0,87,0.00,,---,0.55,VWS V14.00,2013-01-18 01:42:00,
2013-01-17 20:47:00,36.4,32.9,30.23,NNE,13,3.0,9.0,87,0.00,,---,0.55,VWS V14.00,2013-01-18 01:47:00,
2013-01-17 20:50:00,35.6,32.1,30.26,West,276,0.0,2.0,87,0.00,,---,0.55,VWS V14.00,2013-01-18 01:50:00,
2013-01-17 20:53:00,36.4,32.9,30.23,NNW,338,0.0,0.0,87,0.00,,---,0.55,VWS V14.00,2013-01-18 01:53:00,
2013-01-17 20:58:00,36.2,32.7,30.24,NE,53,3.0,3.0,87,0.00,,---,0.55,VWS V14.00,2013-01-18 01:58:00,
2013-01-17 21:00:00,35.2,31.7,30.27,West,276,0.0,1.0,87,0.00,,---,0.55,VWS V14.00,2013-01-18 02:00:00,
2013-01-17 21:03:00,36.2,32.7,30.24,NE,38,0.0,2.0,87,0.00,,---,0.55,VWS V14.00,2013-01-18 02:03:00,
2013-01-17 21:08:00,36.1,32.6,30.24,NE,36,0.0,6.0,87,0.00,,---,0.55,VWS V14.00,2013-01-18 02:08:00,
2013-01-17 21:10:00,34.8,31.6,30.27,West,276,0.0,1.0,88,0.00,,---,0.55,VWS V14.00,2013-01-18 02:10:00,
2013-01-17 21:13:00,36.0,32.8,30.25,SW,216,0.0,2.0,88,0.00,,---,0.55,VWS V14.00,2013-01-18 02:13:00,
2013-01-17 21:17:00,35.8,32.6,30.25,SW,217,0.0,2.0,88,0.00,,---,0.55,VWS V14.00,2013-01-18 02:17:00,
2013-01-17 21:20:00,34.4,31.5,30.29,West,276,0.0,2.0,89,0.00,,---,0.55,VWS V14.00,2013-01-18 02:20:00,
2013-01-17 21:22:00,35.7,32.2,30.25,SW,218,0.0,1.0,87,0.00,,---,0.55,VWS V14.00,2013-01-18 02:22:00,
2013-01-17 21:27:00,35.6,32.1,30.25,WSW,247,0.0,6.0,87,0.00,,---,0.55,VWS V14.00,2013-01-18 02:27:00,
2013-01-17 21:30:00,34.0,31.1,30.29,West,276,0.0,0.0,89,0.00,,---,0.55,VWS V14.00,2013-01-18 02:30:00,
2013-01-17 21:32:00,35.7,32.2,30.26,West,276,1.0,2.0,87,0.00,,---,0.55,VWS V14.00,2013-01-18 02:32:00,
2013-01-17 21:37:00,35.7,32.2,30.26,West,276,2.0,2.0,87,0.00,,---,0.55,VWS V14.00,2013-01-18 02:37:00,
2013-01-17 21:40:00,33.7,31.1,30.30,West,276,0.0,0.0,90,0.00,,---,0.55,VWS V14.00,2013-01-18 02:40:00,
2013-01-17 21:42:00,35.7,32.2,30.26,West,276,0.0,1.0,87,0.00,,---,0.55,VWS V14.00,2013-01-18 02:42:00,
2013-01-17 21:47:00,35.6,32.1,30.26,West,276,0.0,1.0,87,0.00,,---,0.55,VWS V14.00,2013-01-18 02:47:00,
2013-01-17 21:50:00,33.3,30.7,30.30,West,276,0.0,0.0,90,0.00,,---,0.55,VWS V14.00,2013-01-18 02:50:00,
2013-01-17 21:52:00,35.5,32.0,30.26,West,276,0.0,0.0,87,0.00,,---,0.55,VWS V14.00,2013-01-18 02:52:00,
2013-01-17 21:57:00,35.3,31.8,30.27,West,276,0.0,1.0,87,0.00,,---,0.55,VWS V14.00,2013-01-18 02:57:00,
2013-01-17 22:00:00,32.9,30.6,30.31,West,276,0.0,0.0,91,0.00,,---,0.55,VWS V14.00,2013-01-18 03:00:00,
2013-01-17 22:02:00,35.1,31.6,30.27,West,276,0.0,1.0,87,0.00,,---,0.55,VWS V14.00,2013-01-18 03:02:00,
2013-01-17 22:07:00,35.0,31.8,30.27,West,276,0.0,1.0,88,0.00,,---,0.55,VWS V14.00,2013-01-18 03:07:00,
2013-01-17 22:10:00,32.6,30.3,30.32,West,276,0.0,0.0,91,0.00,,---,0.55,VWS V14.00,2013-01-18 03:10:00,
2013-01-17 22:12:00,34.7,31.5,30.28,West,276,0.0,0.0,88,0.00,,---,0.55,VWS V14.00,2013-01-18 03:12:00,
2013-01-17 22:17:00,34.5,31.3,30.28,West,276,0.0,0.0,88,0.00,,---,0.55,VWS V14.00,2013-01-18 03:17:00,
2013-01-17 22:20:00,32.3,30.0,30.32,West,276,0.0,0.0,91,0.00,,---,0.55,VWS V14.00,2013-01-18 03:20:00,
2013-01-17 22:22:00,34.3,31.4,30.29,West,276,0.0,0.0,89,0.00,,---,0.55,VWS V14.00,2013-01-18 03:22:00,
2013-01-17 22:27:00,34.1,31.2,30.28,West,276,0.0,0.0,89,0.00,,---,0.55,VWS V14.00,2013-01-18 03:27:00,
2013-01-17 22:30:00,32.0,29.9,30.32,West,276,0.0,0.0,92,0.00,,---,0.55,VWS V14.00,2013-01-18 03:30:00,
2013-01-17 22:32:00,33.9,31.0,30.29,West,276,0.0,0.0,89,0.00,,---,0.55,VWS V14.00,2013-01-18 03:32:00,
2013-01-17 22:37:00,33.8,31.2,30.30,West,276,0.0,0.0,90,0.00,,---,0.55,VWS V14.00,2013-01-18 03:37:00,
2013-01-17 22:40:00,31.8,29.8,30.33,West,276,0.0,0.0,92,0.00,,---,0.55,VWS V14.00,2013-01-18 03:40:00,
2013-01-17 22:42:00,33.7,31.1,30.30,West,276,0.0,0.0,90,0.00,,---,0.55,VWS V14.00,2013-01-18 03:42:00,
2013-01-17 22:47:00,33.5,30.9,30.30,West,276,0.0,0.0,90,0.00,,---,0.55,VWS V14.00,2013-01-18 03:47:00,
2013-01-17 22:50:00,31.6,29.5,30.34,West,276,0.0,0.0,92,0.00,,---,0.55,VWS V14.00,2013-01-18 03:50:00,
2013-01-17 22:52:00,33.2,30.6,30.30,West,276,0.0,0.0,90,0.00,,---,0.55,VWS V14.00,2013-01-18 03:52:00,
2013-01-17 22:57:00,33.0,30.4,30.31,West,276,0.0,0.0,90,0.00,,---,0.55,VWS V14.00,2013-01-18 03:57:00,
2013-01-17 23:00:00,31.3,29.5,30.34,West,276,0.0,0.0,93,0.00,,---,0.55,VWS V14.00,2013-01-18 04:00:00,
2013-01-17 23:02:00,32.9,30.6,30.31,West,276,0.0,0.0,91,0.00,,---,0.55,VWS V14.00,2013-01-18 04:02:00,
2013-01-17 23:07:00,32.7,30.4,30.31,West,276,0.0,0.0,91,0.00,,---,0.55,VWS V14.00,2013-01-18 04:07:00,
2013-01-17 23:10:00,31.1,29.3,30.34,West,276,0.0,0.0,93,0.00,,---,0.00,VWS V14.00,2013-01-18 04:10:00,
2013-01-17 23:12:00,32.5,30.2,30.32,West,276,0.0,0.0,91,0.00,,---,0.55,VWS V14.00,2013-01-18 04:12:00,
2013-01-17 23:17:00,32.3,30.0,30.32,West,276,0.0,0.0,91,0.00,,---,0.55,VWS V14.00,2013-01-18 04:17:00,
2013-01-17 23:20:00,30.8,29.0,30.35,West,276,0.0,0.0,93,0.00,,---,0.00,VWS V14.00,2013-01-18 04:20:00,
2013-01-17 23:22:00,32.2,30.1,30.32,West,276,0.0,0.0,92,0.00,,---,0.55,VWS V14.00,2013-01-18 04:22:00,
2013-01-17 23:27:00,32.1,30.0,30.32,West,276,0.0,0.0,92,0.00,,---,0.55,VWS V14.00,2013-01-18 04:27:00,
2013-01-17 23:30:00,30.5,28.7,30.35,West,276,0.0,0.0,93,0.00,,---,0.00,VWS V14.00,2013-01-18 04:30:00,
2013-01-17 23:32:00,32.0,29.9,30.32,West,276,0.0,0.0,92,0.00,,---,0.55,VWS V14.00,2013-01-18 04:32:00,
2013-01-17 23:37:00,31.9,29.8,30.32,West,276,0.0,0.0,92,0.00,,---,0.55,VWS V14.00,2013-01-18 04:37:00,
2013-01-17 23:40:00,30.2,28.4,30.35,West,276,0.0,0.0,93,0.00,,---,0.00,VWS V14.00,2013-01-18 04:40:00,
2013-01-17 23:42:00,31.8,29.8,30.33,West,276,0.0,0.0,92,0.00,,---,0.55,VWS V14.00,2013-01-18 04:42:00,
2013-01-17 23:47:00,31.6,29.5,30.33,West,276,0.0,0.0,92,0.00,,---,0.55,VWS V14.00,2013-01-18 04:47:00,
2013-01-17 23:50:00,30.1,28.6,30.36,West,276,0.0,0.0,94,0.00,,---,0.00,VWS V14.00,2013-01-18 04:50:00,
2013-01-17 23:52:00,31.5,29.7,30.34,West,276,0.0,0.0,93,0.00,,---,0.55,VWS V14.00,2013-01-18 04:52:00,
2013-01-17 23:57:00,31.4,29.6,30.34,West,276,0.0,0.0,93,0.00,,---,0.55,VWS V14.00,2013-01-18 04:57:00,